Weather History for EGWU - January, 2014

Change the Weather History Date:

Sunday, January 5, 2014

  Actual Average Record
Temperature  
Mean Temperature 42 °F -  
Max Temperature 53 °F 44 °F 57 °F (1999)
Min Temperature 31 °F 35 °F 24 °F (2003)
Degree Days  
Heating Degree Days 23    
Moisture  
Dew Point 39 °F    
Average Humidity 87    
Maximum Humidity 94    
Minimum Humidity 74    
Precipitation  
Precipitation 0.02 in - - ()
Sea Level Pressure  
Sea Level Pressure 29.52 in    
Wind  
Wind Speed 7 mph ()    
Max Wind Speed 18 mph    
Max Gust Speed -    
Visibility 8.6 miles    
Events Rain    
Averages and records for this station are not official NWS values.
T = Trace of Precipitation, MM = Missing Value Source: Averaged Metar Reports

Daily Weather History Graph

Daily Weather History Graph

Search for Another Location

Airport or City:

Trip Planner

Search our weather history database for the weather conditions in past years. The results will help you decide how hot, cold, wet, or windy it might be!

Date:

Astronomy

Jan. 05, 2014 Rise Set
Actual Time 8:06 AM GMT 4:07 PM GMT
Civil Twilight 7:27 AM GMT 4:47 PM GMT
Nautical Twilight 6:44 AM GMT 5:30 PM GMT
Astronomical Twilight 6:03 AM GMT 6:10 PM GMT
Moon 10:03 AM GMT (1/5) 9:58 PM GMT (1/5)
Length of Visible Light 9h 20m
Length of Day
8h 00m
Waxing Crescent, 22% of the Moon is Illuminated
Jan 5
Waxing Crescent
Jan 8
First Quarter
Jan 16
Full
Jan 24
Last Quarter
Jan 30
New

Hourly Weather History & Observations

Time (GMT) Temp. Windchill Dew Point Humidity Pressure Visibility Wind Dir Wind Speed Gust Speed Precip Events Conditions
12:00 AM 37 °F - 35 °F 90% 29.47 in 19 mi SW 2.3 mph - -   Partly Cloudy
12:50 AM 35.6 °F 31.7 °F 33.8 °F 93% 29.47 in - WNW 4.6 mph - N/A   Clear
1:00 AM 35 °F - 33 °F 90% 29.49 in 19 mi WNW 4.6 mph - -   Scattered Clouds
1:50 AM 35.6 °F 29.9 °F 33.8 °F 93% 29.50 in 6.2 mi WNW 6.9 mph - N/A   Unknown
2:00 AM 35 °F - 33 °F 90% 29.51 in 25 mi WNW 6.9 mph - -  
2:50 AM 35.6 °F 29.9 °F 33.8 °F 93% 29.53 in 6.2 mi West 6.9 mph - N/A   Unknown
3:00 AM 35 °F - 33 °F 91% 29.54 in 22 mi West 6.9 mph - -  
3:50 AM 35.6 °F 30.7 °F 32.0 °F 87% 29.53 in 6.2 mi WSW 5.8 mph - N/A   Unknown
4:00 AM 35 °F - 33 °F 87% 29.55 in 25 mi WSW 5.8 mph - -  
4:50 AM 33.8 °F 29.6 °F 32.0 °F 93% 29.56 in 6.2 mi WSW 4.6 mph - N/A   Unknown
5:00 AM 34 °F - 32 °F 89% 29.57 in 25 mi WSW 4.6 mph - -  
5:50 AM 32.0 °F - 30.2 °F 93% 29.56 in 6.2 mi SE 1.2 mph - N/A   Unknown
6:00 AM 32 °F - 30 °F 90% 29.59 in 15 mi SE 1.2 mph - -  
6:50 AM 32.0 °F 28.7 °F 30.2 °F 93% 29.59 in - SSE 3.5 mph - N/A   Clear
7:00 AM 32 °F - 31 °F 94% 29.61 in 16 mi SSE 3.5 mph - -   Clear
7:50 AM 33.8 °F 30.8 °F 32.0 °F 93% 29.62 in - South 3.5 mph - N/A   Clear
8:00 AM 34 °F - 32 °F 90% 29.64 in 25 mi South 3.5 mph - -   Clear
8:50 AM 35.6 °F 31.7 °F 33.8 °F 93% 29.62 in - SW 4.6 mph - N/A   Clear
9:00 AM 35 °F - 33 °F 90% 29.65 in 25 mi SW 4.6 mph - -   Mostly Cloudy
9:50 AM 37.4 °F 32.8 °F 33.8 °F 87% 29.62 in - SSW 5.8 mph - N/A   Clear
10:00 AM 38 °F - 34 °F 80% 29.64 in 25 mi SSW 5.8 mph - -   Mostly Cloudy
10:50 AM 41.0 °F 38.0 °F 35.6 °F 81% 29.62 in - South 4.6 mph - N/A   Clear
11:00 AM 41 °F - 36 °F 74% 29.63 in 22 mi South 4.6 mph - -   Mostly Cloudy
11:50 AM 42.8 °F 39.3 °F 37.4 °F 81% 29.59 in - South 5.8 mph - N/A   Clear
12:00 PM 43 °F - 38 °F 75% 29.61 in 25 mi South 5.8 mph - -   Mostly Cloudy
12:50 PM 44.6 °F 41.4 °F 39.2 °F 81% 29.59 in 6.2 mi South 5.8 mph - N/A   Overcast
1:00 PM 44 °F - 39 °F 77% 29.62 in 25 mi South 5.8 mph - -   Overcast
1:50 PM 44.6 °F 38.4 °F 41.0 °F 87% 29.59 in 6.2 mi SSW 12.7 mph - N/A   Overcast
2:00 PM 45 °F - 40 °F 77% 29.61 in 19 mi SSW 12.7 mph - -   Overcast
2:50 PM 46.4 °F 41.1 °F 41.0 °F 81% 29.56 in 6.2 mi South 11.5 mph - N/A Rain Light Rain
3:00 PM 46 °F - 41 °F 76% 29.57 in 25 mi South 11.5 mph - - Rain Light Rain
3:13 PM 46.4 °F 40.7 °F 41.0 °F 81% 29.53 in 6.2 mi South 12.7 mph - N/A   Mostly Cloudy
3:50 PM 46.4 °F 39.8 °F 41.0 °F 81% 29.50 in 6.2 mi South 16.1 mph - N/A Rain Light Rain
4:00 PM 46 °F - 42 °F 79%  in 9 mi South 16.1 mph - - Rain Light Rain
4:50 PM 46.4 °F 39.2 °F 42.8 °F 87% 29.47 in 6.2 mi South 18.4 mph - N/A Rain Light Rain
5:00 PM 47 °F - 42 °F 76% 29.49 in 16 mi South 18.4 mph - - Rain Light Rain
5:50 PM 46.4 °F 39.8 °F 42.8 °F 87% 29.44 in 6.2 mi South 16.1 mph - N/A Rain Light Rain
6:00 PM 47 °F - 43 °F 82% 29.47 in 12 mi South 16.1 mph - - Rain Light Rain
6:50 PM 48.2 °F - 44.6 °F 87% 29.42 in 6.2 mi South 17.3 mph - N/A   Overcast
7:00 PM 48 °F - 44 °F 83% 29.44 in 25 mi South 17.3 mph - - Rain Light Rain
7:50 PM 48.2 °F - 46.4 °F 93% 29.39 in - South 15.0 mph - N/A   Overcast
8:00 PM 49 °F - 47 °F 89% 29.40 in 3 mi South 15.0 mph - -   Overcast
8:50 PM 50.0 °F - 48.2 °F 94% 29.36 in 5.6 mi South 16.1 mph - N/A   Overcast
9:00 PM 50 °F - 48 °F 90% 29.37 in 6 mi South 16.1 mph - -   Overcast
9:50 PM 51.8 °F - 50.0 °F 94% 29.33 in 6.2 mi South 15.0 mph - N/A   Overcast
10:00 PM 52 °F - 49 °F 88% 29.35 in 11 mi South 15.0 mph - -   Overcast
10:50 PM 53.6 °F - 50.0 °F 88% 29.33 in 5.0 mi SSW 17.3 mph - N/A   Mostly Cloudy
11:00 PM 53 °F - 51 °F 89% 29.33 in 5 mi SSW 17.3 mph - -   Scattered Clouds
11:50 PM 53.6 °F - 51.8 °F 94% 29.30 in 3.1 mi SSW 16.1 mph - N/A   Mostly Cloudy